Weather History for KMEI - September, 2013

Change the Weather History Date:

Tuesday, September 24, 2013

  Actual Average Record
Temperature  
Mean Temperature 73 °F 72 °F  
Max Temperature 76 °F 84 °F 97 °F (1993)
Min Temperature 69 °F 60 °F 43 °F (1990)
Degree Days  
Heating Degree Days 0 0  
Month to date heating degree days 0 0  
Since 1 July heating degree days 0 0  
Cooling Degree Days 8 8  
Month to date cooling degree days 302 265  
Year to date cooling degree days 1882 1885  
Growing Degree Days 22 (Base 50)    
Moisture  
Dew Point 71 °F    
Average Humidity 94    
Maximum Humidity 100    
Minimum Humidity 87    
Precipitation  
Precipitation 0.83 in 0.12 in 2.82 in (1991)
Month to date precipitation 2.66 2.72  
Year to date precipitation 52.18 41.68  
Sea Level Pressure  
Sea Level Pressure 29.84 in    
Wind  
Wind Speed 5 mph (ESE)    
Max Wind Speed 16 mph    
Max Gust Speed 22 mph    
Visibility 7 miles    
Events Rain , Thunderstorm    
T = Trace of Precipitation, MM = Missing Value Source: NWS Daily Summary

Daily Weather History Graph

Daily Weather History Graph

Search for Another Location

Airport or City:

Trip Planner

Search our weather history database for the weather conditions in past years. The results will help you decide how hot, cold, wet, or windy it might be!

Date:

Astronomy

Sep. 24, 2013 Rise Set
Actual Time 6:44 AM CDT 6:48 PM CDT
Civil Twilight 6:20 AM CDT 7:13 PM CDT
Nautical Twilight 5:51 AM CDT 7:41 PM CDT
Astronomical Twilight 5:22 AM CDT 8:10 PM CDT
Moon 10:23 PM CDT (9/24) 11:41 AM CDT (9/24)
Length of Visible Light 12h 52m
Length of Day
12h 04m
Waning Gibbous, 73% of the Moon is Illuminated
Sep 24
Waning Gibbous
Sep 26
Last Quarter
Oct 4
New
Oct 11
First Quarter
Oct 18
Full

Hourly Weather History & Observations

Time (CDT) Temp. Dew Point Humidity Pressure Visibility Wind Dir Wind Speed Gust Speed Precip Events Conditions
12:58 AM 73.0 °F 70.0 °F 90% 29.90 in 10.0 mi Variable 4.6 mph - N/A   Overcast
1:58 AM 73.0 °F 70.0 °F 90% 29.91 in 10.0 mi SE 3.5 mph - N/A   Overcast
2:58 AM 73.0 °F 71.1 °F 93% 29.90 in 10.0 mi ESE 3.5 mph - N/A   Overcast
3:58 AM 72.0 °F 71.1 °F 97% 29.90 in 5.0 mi East 3.5 mph - N/A   Overcast
4:58 AM 72.0 °F 71.1 °F 97% 29.90 in 5.0 mi East 3.5 mph - N/A   Overcast
5:58 AM 72.0 °F 71.1 °F 97% - 8.0 mi ESE 3.5 mph - N/A   Overcast
6:58 AM 73.0 °F 71.1 °F 93% 29.91 in 10.0 mi East 3.5 mph - N/A   Overcast
7:58 AM 73.0 °F 71.1 °F 93% 29.91 in 10.0 mi ESE 5.8 mph - N/A   Overcast
8:58 AM 73.0 °F 71.1 °F 93% 29.89 in 4.0 mi East 3.5 mph - N/A   Overcast
9:58 AM 73.9 °F 71.1 °F 91% 29.90 in 10.0 mi SE 6.9 mph - N/A   Overcast
10:58 AM 75.0 °F 71.1 °F 87% 29.86 in 10.0 mi ESE 5.8 mph - N/A   Overcast
11:58 AM 75.9 °F 72.0 °F 87% 29.87 in 10.0 mi SE 9.2 mph - 0.00 in   Overcast
12:58 PM 73.9 °F 72.0 °F 93% 29.86 in 9.0 mi East 8.1 mph - 0.00 in Rain Light Rain
1:58 PM 73.9 °F 73.0 °F 97% 29.84 in 4.0 mi NE 6.9 mph - 0.10 in Rain Rain
2:15 PM 73.4 °F 73.4 °F 100% 29.86 in 2.0 mi NE 6.9 mph - 0.06 in Rain Heavy Rain
2:17 PM 73.4 °F 73.4 °F 100% 29.87 in 1.8 mi NE 5.8 mph - 0.08 in Rain Heavy Rain
2:26 PM 73.4 °F 73.4 °F 100% 29.86 in 0.8 mi ENE 6.9 mph - 0.23 in Rain Heavy Rain
2:30 PM 73.4 °F 73.4 °F 100% 29.84 in 1.2 mi East 13.8 mph - 0.26 in Rain , Thunderstorm Heavy Thunderstorms and Rain
2:43 PM 73.4 °F 73.4 °F 100% 29.83 in 1.5 mi East 10.4 mph - 0.47 in Rain , Thunderstorm Heavy Thunderstorms and Rain
2:58 PM 73.0 °F 72.0 °F 96% 29.83 in 2.0 mi NNE 9.2 mph - 0.57 in Rain , Thunderstorm Heavy Thunderstorms and Rain
3:09 PM 73.4 °F 71.6 °F 94% 29.85 in 4.0 mi NE 8.1 mph - 0.03 in Rain , Thunderstorm Thunderstorms and Rain
3:58 PM 73.0 °F 72.0 °F 96% 29.73 in 5.0 mi East 16.1 mph 19.6 mph 0.15 in Rain Rain
4:58 PM 73.9 °F 72.0 °F 93% 29.78 in 10.0 mi NNE 3.5 mph - 0.01 in   Overcast
5:05 PM 73.4 °F 71.6 °F 94% 29.79 in 10.0 mi North 3.5 mph - N/A   Overcast
5:58 PM 73.9 °F 72.0 °F 93% 29.78 in 10.0 mi ESE 4.6 mph - N/A   Overcast
6:35 PM 73.4 °F 71.6 °F 94% 29.79 in 10.0 mi Calm Calm - N/A   Overcast
6:58 PM 73.0 °F 71.1 °F 93% 29.79 in 10.0 mi SSW 6.9 mph - N/A   Overcast
7:18 PM 71.6 °F 71.6 °F 100% 29.81 in 10.0 mi South 4.6 mph - N/A   Overcast
7:53 PM 71.6 °F 69.8 °F 94% 29.81 in 10.0 mi Calm Calm - N/A   Overcast
7:58 PM 72.0 °F 70.0 °F 93% 29.81 in 10.0 mi Calm Calm - N/A   Overcast
8:27 PM 71.6 °F 69.8 °F 94% 29.82 in 10.0 mi SSE 3.5 mph - N/A   Scattered Clouds
8:37 PM 71.6 °F 69.8 °F 94% 29.82 in 10.0 mi Calm Calm - N/A   Mostly Cloudy
8:53 PM 71.6 °F 69.8 °F 94% 29.82 in 10.0 mi South 3.5 mph - N/A   Overcast
8:58 PM 71.1 °F 70.0 °F 96% 29.82 in 10.0 mi South 3.5 mph - N/A   Overcast
9:06 PM 71.6 °F 69.8 °F 94% 29.83 in 10.0 mi Calm Calm - N/A   Overcast
9:23 PM 69.8 °F 69.8 °F 100% 29.84 in 10.0 mi Calm Calm - N/A   Mostly Cloudy
9:43 PM 69.8 °F 69.8 °F 100% 29.83 in 3.0 mi Calm Calm - N/A   Scattered Clouds
9:49 PM 69.8 °F 69.8 °F 100% 29.83 in 1.8 mi Calm Calm - N/A   Mostly Cloudy
9:56 PM 69.8 °F 69.8 °F 100% 29.83 in 3.0 mi SSW 6.9 mph - N/A   Mostly Cloudy
9:58 PM 69.1 °F 68.0 °F 96% 29.83 in 3.0 mi South 4.6 mph - N/A   Mostly Cloudy
10:11 PM 71.6 °F 69.8 °F 94% 29.83 in 10.0 mi Calm Calm - N/A   Overcast
10:58 PM 71.1 °F 70.0 °F 96% 29.82 in 6.0 mi South 3.5 mph - N/A   Overcast
11:35 PM 69.8 °F 69.8 °F 100% 29.82 in 10.0 mi Calm Calm - N/A   Scattered Clouds
11:43 PM 69.8 °F 68.0 °F 94% 29.82 in 1.8 mi Calm Calm - N/A   Partly Cloudy
11:47 PM 69.8 °F 68.0 °F 94% 29.82 in 2.0 mi Calm Calm - N/A   Partly Cloudy
11:53 PM 69.8 °F 68.0 °F 94% 29.82 in 4.0 mi Calm Calm - N/A   Mostly Cloudy
11:58 PM 69.1 °F 69.1 °F 100% 29.81 in 5.0 mi Calm Calm - N/A   Mostly Cloudy